KC4LW Weather Reports


Display with metric or nautical units.
time (UTC)temp
F
wind
direction
speed
MPH
gust
MPH
rain 1hr
in
rain 24hr
in
rain mn
in
humidity
%
barometer
mb
20240621150048 84 92 2.0 8.0 0.00 0.00 0.00 79 1019.1
20240621144553 84 194 2.0 8.0 0.00 0.00 0.00 79 1019.1
20240621143050 84 116 1.0 9.0 0.00 0.00 0.00 80 1019.3
20240621141550 84 57 1.0 8.0 0.00 0.00 0.00 80 1019.2
20240621140102 83 98 2.0 12.0 0.00 0.00 0.00 81 1019.1
20240621134552 83 74 2.0 12.0 0.00 0.00 0.00 80 1019.4
20240621133050 83 82 3.0 9.0 0.00 0.00 0.00 80 1019.6
20240621131555 82 126 1.0 9.0 0.00 0.00 0.00 81 1019.5
20240621130104 82 54 3.0 9.0 0.00 0.00 0.00 83 1019.7
20240621124552 81 5 2.0 9.0 0.00 0.00 0.00 85 1019.3
20240621123105 80 51 2.0 8.0 0.00 0.00 0.00 86 1019.5
20240621121608 80 360 2.0 7.0 0.00 0.00 0.00 88 1019.3
20240621120059 80 43 3.0 9.0 0.00 0.00 0.00 88 1019.3
20240621114548 79 173 1.0 10.0 0.00 0.00 0.00 88 1019.3
20240621113058 79 61 2.0 8.0 0.00 0.00 0.00 88 1019.5
20240621111555 79 0 2.0 7.0 0.00 0.00 0.00 89 1019.4
20240621110056 79 36 1.0 12.0 0.00 0.00 0.00 87 1019.4
20240621104552 79 0 1.0 8.0 0.00 0.00 0.00 88 1019.3
20240621103048 79 85 2.0 7.0 0.00 0.00 0.00 87 1019.0
20240621101551 79 91 1.0 4.0 0.00 0.00 0.00 88 1019.1
20240621100051 78 178 1.0 5.0 0.00 0.00 0.00 87 1019.1
20240621094555 78 161 2.0 9.0 0.00 0.00 0.00 88 1019.1
20240621093055 78 76 1.0 8.0 0.00 0.00 0.00 89 1019.0
20240621091600 78 0 1.0 9.0 0.00 0.00 0.00 89 1019.2
20240621090052 78 86 2.0 9.0 0.00 0.00 0.00 89 1019.0
20240621084558 78 57 2.0 10.0 0.00 0.00 0.00 90 1018.9
20240621083055 78 101 1.0 7.0 0.00 0.00 0.00 89 1019.1
20240621081559 79 158 1.0 7.0 0.00 0.00 0.00 88 1019.2
20240621080051 79 82 1.0 5.0 0.00 0.00 0.00 86 1019.3
20240621074556 79 78 1.0 11.0 0.00 0.00 0.00 86 1019.5
20240621073054 79 79 2.0 7.0 0.00 0.00 0.00 86 1019.6
20240621071606 79 74 1.0 8.0 0.00 0.00 0.00 85 1019.6
20240621070053 79 59 1.0 7.0 0.00 0.00 0.00 85 1019.9
20240621064552 79 44 1.0 7.0 0.00 0.00 0.00 84 1020.0
20240621063048 79 96 2.0 7.0 0.00 0.00 0.00 83 1020.1
20240621061549 79 134 1.0 10.0 0.00 0.00 0.00 82 1020.2
20240621060052 79 61 1.0 7.0 0.00 0.00 0.00 82 1020.2
20240621054550 79 101 1.0 7.0 0.00 0.01 0.00 81 1020.3
20240621053057 79 107 1.0 7.0 0.00 0.01 0.00 82 1020.5
20240621051551 79 30 2.0 7.0 0.00 0.01 0.00 81 1020.8
20240621050058 79 96 0.0 4.0 0.00 0.01 0.00 81 1020.9
20240621044549 79 103 1.0 7.0 0.00 0.02 0.00 80 1021.0
20240621043049 79 56 1.0 7.0 0.00 0.02 0.00 80 1021.3
20240621041552 79 55 1.0 6.0 0.00 0.02 0.00 80 1021.1
20240621040052 79 0 0.0 7.0 0.00 0.02 0.00 80 1021.4
20240621034548 79 83 1.0 6.0 0.00 0.02 0.02 79 1021.3
20240621033051 79 22 1.0 8.0 0.00 0.02 0.02 79 1021.2
20240621031549 80 49 2.0 6.0 0.00 0.02 0.02 78 1021.1
20240621030050 80 111 2.0 8.0 0.00 0.02 0.02 79 1021.2
20240621024548 80 32 2.0 6.0 0.00 0.02 0.02 80 1021.1
20240621023049 80 119 1.0 6.0 0.00 0.02 0.02 79 1021.3
20240621021556 80 89 1.0 10.0 0.00 0.02 0.02 78 1021.0
20240621020114 80 85 2.0 10.0 0.00 0.02 0.02 76 1021.2
20240621014552 79 63 2.0 8.0 0.00 0.02 0.02 75 1021.0
20240621013050 80 96 1.0 6.0 0.00 0.02 0.02 75 1020.9
20240621011551 80 140 2.0 9.0 0.00 0.02 0.02 76 1021.0
20240621010052 80 134 1.0 10.0 0.00 0.02 0.02 75 1021.0
20240621004605 80 85 2.0 9.0 0.00 0.02 0.02 75 1021.0
20240621003047 80 71 2.0 8.0 0.00 0.02 0.02 75 1021.0
20240621001605 80 139 2.0 9.0 0.00 0.02 0.02 74 1020.9
20240621000059 81 105 1.0 9.0 0.00 0.02 0.02 73 1020.7
20240620234549 81 112 1.0 7.0 0.00 0.02 0.02 72 1020.7
20240620233048 82 107 1.0 10.0 0.00 0.02 0.02 71 1020.7
20240620231555 82 52 3.0 10.0 0.00 0.02 0.02 72 1020.8
20240620230052 82 70 2.0 8.0 0.00 0.02 0.02 72 1020.6
20240620224550 82 40 3.0 11.0 0.00 0.02 0.02 71 1020.8
20240620223056 83 62 5.0 12.0 0.00 0.02 0.02 70 1020.9
20240620221553 83 84 3.0 13.0 0.00 0.02 0.02 71 1020.9
20240620220056 83 72 3.0 12.0 0.00 0.02 0.02 72 1021.0
20240620214548 82 305 3.0 9.0 0.00 0.02 0.02 74 1021.0
20240620213049 83 54 6.0 17.0 0.00 0.02 0.02 72 1021.3
20240620211553 83 126 3.0 11.0 0.00 0.02 0.02 73 1021.3
20240620210059 84 49 3.0 11.0 0.00 0.02 0.02 72 1021.4
20240620204547 84 19 2.0 12.0 0.00 0.02 0.02 72 1021.4
20240620203048 85 92 2.0 15.0 0.00 0.02 0.02 72 1021.6
20240620201553 85 87 3.0 15.0 0.00 0.02 0.02 71 1021.6
20240620200049 84 71 3.0 10.0 0.00 0.02 0.02 72 1021.8
20240620194548 85 77 2.0 10.0 0.00 0.02 0.02 70 1021.9
20240620193055 85 119 4.0 11.0 0.00 0.02 0.02 69 1021.9
20240620191548 85 58 5.0 9.0 0.00 0.02 0.02 69 1022.1
20240620190047 85 122 2.0 12.0 0.00 0.02 0.02 70 1022.2
20240620184551 85 21 4.0 15.0 0.00 0.02 0.02 68 1022.2
20240620183055 86 119 1.0 11.0 0.00 0.02 0.02 68 1022.3
20240620181600 85 46 1.0 9.0 0.00 0.02 0.02 70 1022.4
20240620180052 85 70 3.0 15.0 0.00 0.02 0.02 71 1022.3
20240620174548 85 23 3.0 12.0 0.00 0.02 0.02 71 1022.2
20240620173052 86 74 3.0 12.0 0.00 0.02 0.02 69 1022.5
20240620171554 86 32 2.0 9.0 0.00 0.02 0.02 68 1022.5
20240620170051 87 65 2.0 11.0 0.00 0.02 0.02 67 1022.8
20240620164555 87 110 3.0 9.0 0.00 0.02 0.02 68 1023.1
20240620163048 86 350 3.0 9.0 0.00 0.02 0.02 69 1023.2
20240620161552 86 53 4.0 15.0 0.00 0.02 0.02 70 1023.0
20240620160050 86 64 2.0 10.0 0.00 0.02 0.02 69 1023.2
20240620154553 85 113 2.0 13.0 0.00 0.02 0.02 71 1023.2
20240620153050 84 5 1.0 13.0 0.00 0.02 0.02 73 1023.2
20240620151550 84 40 3.0 9.0 0.00 0.02 0.02 72 1023.2